C/2023 B2 ( ATLAS )

Japanese version
Home page
Updated on May 28, 2023

---------------------------------------------------------------------

* Profile

Discovery Date January 21, 2023
Magnitude 18.8 mag
Discoverer Asteroid Terrestrial-Impact Last Alert System (ATLAS) search program

* Pictures

* Orbital Elements

Epoch 2023 Feb. 25.0 TT = JDT 2460000.5
T 2023 Mar. 10.49667 TT                                 Rudenko
q   1.7431324            (2000.0)            P               Q
z  +0.0016721      Peri.  317.39988     -0.89554538     -0.18837152
 +/-0.0000007      Node   218.12075     +0.12892172     -0.97695588
e   0.9970854      Incl.   40.77069     -0.42588456     +0.10036620
>From 266 observations 2022 Nov. 16-2023 Apr. 30, mean residual 0".4.

* Finding Charts

* Magnitudes Graph

        m1 = 9.5 + 5 log d + 22.0 log r(t - 50)

---------------------------------------------------------------------

The orbital elements are published on M.P.E.C. 2023-J29.
The charts are made with StellaNavigator Ver.10 (AstroArts).
The magnitudes graphs are made with Comet for Windows.

---------------------------------------------------------------------

Copyright(C) Seiichi Yoshida (comet@aerith.net). All rights reserved.